Year,Month,Day,Hour,Minute,Value (Times are PST for barometer in hPa)
2006,11,16,00,00,1004.88
2006,11,16,00,01,1004.94
2006,11,16,00,02,1004.91
2006,11,16,00,03,1005.01
2006,11,16,00,04,1005.01
2006,11,16,00,05,1005.08
2006,11,16,00,06,1005.05
2006,11,16,00,07,1005.08
2006,11,16,00,08,1005.08
2006,11,16,00,09,1005.08
2006,11,16,00,10,1005.15
2006,11,16,00,11,1005.18
2006,11,16,00,12,1005.18
2006,11,16,00,13,1005.22
2006,11,16,00,14,1005.28
2006,11,16,00,15,1005.28
2006,11,16,00,16,1005.25
2006,11,16,00,17,1005.28
2006,11,16,00,18,1005.32
2006,11,16,00,19,1005.32
2006,11,16,00,20,1005.35
2006,11,16,00,21,1005.35
2006,11,16,00,22,1005.39
2006,11,16,00,23,1005.49
2006,11,16,00,24,1005.52
2006,11,16,00,25,1005.55
2006,11,16,00,26,1005.55
2006,11,16,00,27,1005.62
2006,11,16,00,28,1005.59
2006,11,16,00,29,1005.62
2006,11,16,00,30,1005.62
2006,11,16,00,31,1005.62
2006,11,16,00,32,1005.62
2006,11,16,00,33,1005.59
2006,11,16,00,34,1005.66
2006,11,16,00,35,1005.69
2006,11,16,00,36,1005.76
2006,11,16,00,37,1005.79
2006,11,16,00,38,1005.79
2006,11,16,00,39,1005.83
2006,11,16,00,40,1005.83
2006,11,16,00,41,1005.93
2006,11,16,00,42,1005.93
2006,11,16,00,43,1005.96
2006,11,16,00,44,1005.96
2006,11,16,00,45,1005.96
2006,11,16,00,46,1006.03
2006,11,16,00,47,1006.10
2006,11,16,00,48,1006.16
2006,11,16,00,49,1006.20
2006,11,16,00,50,1006.27
2006,11,16,00,51,1006.27
2006,11,16,00,52,1006.30
2006,11,16,00,53,1006.33
2006,11,16,00,54,1006.33
2006,11,16,00,55,1006.47
2006,11,16,00,56,1006.47
2006,11,16,00,57,1006.47
2006,11,16,00,58,1006.54
2006,11,16,00,59,1006.50
2006,11,16,01,00,1006.54
2006,11,16,01,01,1006.60
2006,11,16,01,02,1006.60
2006,11,16,01,03,1006.67
2006,11,16,01,04,1006.67
2006,11,16,01,05,1006.67
2006,11,16,01,06,1006.71
2006,11,16,01,07,1006.71
2006,11,16,01,08,1006.74
2006,11,16,01,09,1006.71
2006,11,16,01,10,1006.74
2006,11,16,01,11,1006.77
2006,11,16,01,12,1006.81
2006,11,16,01,13,1006.77
2006,11,16,01,14,1006.84
2006,11,16,01,15,1006.88
2006,11,16,01,16,1006.84
2006,11,16,01,17,1006.84
2006,11,16,01,18,1006.88
2006,11,16,01,19,1006.91
2006,11,16,01,20,1006.91
2006,11,16,01,21,1006.91
2006,11,16,01,22,1006.94
2006,11,16,01,23,1006.94
2006,11,16,01,24,1006.91
2006,11,16,01,25,1006.91
2006,11,16,01,26,1007.01
2006,11,16,01,27,1007.04
2006,11,16,01,28,1007.04
2006,11,16,01,29,1007.11
2006,11,16,01,30,1007.11
2006,11,16,01,31,1007.15
2006,11,16,01,32,1007.21
2006,11,16,01,33,1007.21
2006,11,16,01,34,1007.32
2006,11,16,01,35,1007.35
2006,11,16,01,36,1007.32
2006,11,16,01,37,1007.35
2006,11,16,01,38,1007.35
2006,11,16,01,39,1007.32
2006,11,16,01,40,1007.42
2006,11,16,01,41,1007.42
2006,11,16,01,42,1007.48
2006,11,16,01,43,1007.52
2006,11,16,01,44,1007.52
2006,11,16,01,45,1007.59
2006,11,16,01,46,1007.62
2006,11,16,01,47,1007.69
2006,11,16,01,48,1007.76
2006,11,16,01,49,1007.82
2006,11,16,01,50,1007.89
2006,11,16,01,51,1007.96
2006,11,16,01,52,1008.06
2006,11,16,01,53,1008.06
2006,11,16,01,54,1008.06
2006,11,16,01,55,1008.13
2006,11,16,01,56,1008.16
2006,11,16,01,57,1008.20
2006,11,16,01,58,1008.20
2006,11,16,01,59,1008.20
2006,11,16,02,00,1008.16
2006,11,16,02,01,1008.13
2006,11,16,02,02,1008.20
2006,11,16,02,03,1008.20
2006,11,16,02,04,1008.26
2006,11,16,02,05,1008.23
2006,11,16,02,06,1008.23
2006,11,16,02,07,1008.26
2006,11,16,02,08,1008.26
2006,11,16,02,09,1008.26
2006,11,16,02,10,1008.26
2006,11,16,02,11,1008.33
2006,11,16,02,12,1008.37
2006,11,16,02,13,1008.37
2006,11,16,02,14,1008.40
2006,11,16,02,15,1008.47
2006,11,16,02,16,1008.50
2006,11,16,02,17,1008.53
2006,11,16,02,18,1008.50
2006,11,16,02,19,1008.53
2006,11,16,02,20,1008.53
2006,11,16,02,21,1008.53
2006,11,16,02,22,1008.57
2006,11,16,02,23,1008.57
2006,11,16,02,24,1008.60
2006,11,16,02,25,1008.67
2006,11,16,02,26,1008.64
2006,11,16,02,27,1008.64
2006,11,16,02,28,1008.64
2006,11,16,02,29,1008.64
2006,11,16,02,30,1008.67
2006,11,16,02,31,1008.74
2006,11,16,02,32,1008.70
2006,11,16,02,33,1008.74
2006,11,16,02,34,1008.74
2006,11,16,02,35,1008.81
2006,11,16,02,36,1008.77
2006,11,16,02,37,1008.81
2006,11,16,02,38,1008.84
2006,11,16,02,39,1008.84
2006,11,16,02,40,1008.87
2006,11,16,02,41,1008.84
2006,11,16,02,42,1008.87
2006,11,16,02,43,1008.84
2006,11,16,02,44,1008.84
2006,11,16,02,45,1008.87
2006,11,16,02,46,1008.87
2006,11,16,02,47,1008.91
2006,11,16,02,48,1008.91
2006,11,16,02,49,1008.87
2006,11,16,02,50,1008.91
2006,11,16,02,51,1008.87
2006,11,16,02,52,1008.97
2006,11,16,02,53,1008.94
2006,11,16,02,54,1008.94
2006,11,16,02,55,1008.94
2006,11,16,02,56,1009.04
2006,11,16,02,57,1009.04
2006,11,16,02,58,1009.04
2006,11,16,02,59,1009.08
2006,11,16,03,00,1009.11
2006,11,16,03,01,1009.14
2006,11,16,03,02,1009.18
2006,11,16,03,03,1009.14
2006,11,16,03,04,1009.21
2006,11,16,03,05,1009.21
2006,11,16,03,06,1009.28
2006,11,16,03,07,1009.31
2006,11,16,03,08,1009.31
2006,11,16,03,09,1009.28
2006,11,16,03,10,1009.31
2006,11,16,03,11,1009.28
2006,11,16,03,12,1009.38
2006,11,16,03,13,1009.42
2006,11,16,03,14,1009.48
2006,11,16,03,15,1009.48
2006,11,16,03,16,1009.52
2006,11,16,03,17,1009.55
2006,11,16,03,18,1009.55
2006,11,16,03,19,1009.55
2006,11,16,03,20,1009.58
2006,11,16,03,21,1009.55
2006,11,16,03,22,1009.58
2006,11,16,03,23,1009.55
2006,11,16,03,24,1009.62
2006,11,16,03,25,1009.58
2006,11,16,03,26,1009.58
2006,11,16,03,27,1009.58
2006,11,16,03,28,1009.55
2006,11,16,03,29,1009.55
2006,11,16,03,30,1009.58
2006,11,16,03,31,1009.58
2006,11,16,03,32,1009.62
2006,11,16,03,33,1009.58
2006,11,16,03,34,1009.58
2006,11,16,03,35,1009.62
2006,11,16,03,36,1009.58
2006,11,16,03,37,1009.65
2006,11,16,03,38,1009.65
2006,11,16,03,39,1009.69
2006,11,16,03,40,1009.65
2006,11,16,03,41,1009.69
2006,11,16,03,42,1009.72
2006,11,16,03,43,1009.72
2006,11,16,03,44,1009.79
2006,11,16,03,45,1009.79
2006,11,16,03,46,1009.82
2006,11,16,03,47,1009.82
2006,11,16,03,48,1009.82
2006,11,16,03,49,1009.82
2006,11,16,03,50,1009.82
2006,11,16,03,51,1009.79
2006,11,16,03,52,1009.82
2006,11,16,03,53,1009.86
2006,11,16,03,54,1009.82
2006,11,16,03,55,1009.82
2006,11,16,03,56,1009.86
2006,11,16,03,57,1009.86
2006,11,16,03,58,1009.86
2006,11,16,03,59,1009.86
2006,11,16,04,00,1009.89
2006,11,16,04,01,1009.96
2006,11,16,04,02,1009.96
2006,11,16,04,03,1010.02
2006,11,16,04,04,1010.02
2006,11,16,04,05,1009.99
2006,11,16,04,06,1010.02
2006,11,16,04,07,1009.99
2006,11,16,04,08,1010.02
2006,11,16,04,09,1010.06
2006,11,16,04,10,1010.06
2006,11,16,04,11,1010.09
2006,11,16,04,12,1010.09
2006,11,16,04,13,1010.09
2006,11,16,04,14,1010.09
2006,11,16,04,15,1010.06
2006,11,16,04,16,1010.13
2006,11,16,04,17,1010.13
2006,11,16,04,18,1010.13
2006,11,16,04,19,1010.13
2006,11,16,04,20,1010.06
2006,11,16,04,21,1010.13
2006,11,16,04,22,1010.16
2006,11,16,04,23,1010.16
2006,11,16,04,24,1010.16
2006,11,16,04,25,1010.16
2006,11,16,04,26,1010.23
2006,11,16,04,27,1010.26
2006,11,16,04,28,1010.16
2006,11,16,04,29,1010.13
2006,11,16,04,30,1010.16
2006,11,16,04,31,1010.16
2006,11,16,04,32,1010.19
2006,11,16,04,33,1010.19
2006,11,16,04,34,1010.26
2006,11,16,04,35,1010.33
2006,11,16,04,36,1010.36
2006,11,16,04,37,1010.40
2006,11,16,04,38,1010.40
2006,11,16,04,39,1010.40
2006,11,16,04,40,1010.43
2006,11,16,04,41,1010.43
2006,11,16,04,42,1010.43
2006,11,16,04,43,1010.40
2006,11,16,04,44,1010.46
2006,11,16,04,45,1010.53
2006,11,16,04,46,1010.53
2006,11,16,04,47,1010.57
2006,11,16,04,48,1010.57
2006,11,16,04,49,1010.53
2006,11,16,04,50,1010.57
2006,11,16,04,51,1010.60
2006,11,16,04,52,1010.63
2006,11,16,04,53,1010.63
2006,11,16,04,54,1010.70
2006,11,16,04,55,1010.70
2006,11,16,04,56,1010.70
2006,11,16,04,57,1010.67
2006,11,16,04,58,1010.67
2006,11,16,04,59,1010.67
2006,11,16,05,00,1010.74
2006,11,16,05,01,1010.74
2006,11,16,05,02,1010.77
2006,11,16,05,03,1010.77
2006,11,16,05,04,1010.77
2006,11,16,05,05,1010.74
2006,11,16,05,06,1010.77
2006,11,16,05,07,1010.77
2006,11,16,05,08,1010.74
2006,11,16,05,09,1010.71
2006,11,16,05,10,1010.80
2006,11,16,05,11,1010.80
2006,11,16,05,12,1010.80
2006,11,16,05,13,1010.87
2006,11,16,05,14,1010.84
2006,11,16,05,15,1010.91
2006,11,16,05,16,1010.87
2006,11,16,05,17,1010.94
2006,11,16,05,18,1010.91
2006,11,16,05,19,1010.91
2006,11,16,05,20,1010.91
2006,11,16,05,21,1010.91
2006,11,16,05,22,1010.87
2006,11,16,05,23,1010.91
2006,11,16,05,24,1010.94
2006,11,16,05,25,1010.94
2006,11,16,05,26,1010.94
2006,11,16,05,27,1010.91
2006,11,16,05,28,1010.91
2006,11,16,05,29,1010.91
2006,11,16,05,30,1010.91
2006,11,16,05,31,1010.87
2006,11,16,05,32,1010.87
2006,11,16,05,33,1010.91
2006,11,16,05,34,1010.87
2006,11,16,05,35,1010.87
2006,11,16,05,36,1010.87
2006,11,16,05,37,1010.84
2006,11,16,05,38,1010.80
2006,11,16,05,39,1010.84
2006,11,16,05,40,1010.84
2006,11,16,05,41,1010.84
2006,11,16,05,42,1010.87
2006,11,16,05,43,1010.87
2006,11,16,05,44,1010.84
2006,11,16,05,45,1010.91
2006,11,16,05,46,1010.94
2006,11,16,05,47,1010.91
2006,11,16,05,48,1010.94
2006,11,16,05,49,1010.94
2006,11,16,05,50,1010.94
2006,11,16,05,51,1010.97
2006,11,16,05,52,1011.01
2006,11,16,05,53,1011.07
2006,11,16,05,54,1011.11
2006,11,16,05,55,1011.07
2006,11,16,05,56,1011.11
2006,11,16,05,57,1011.07
2006,11,16,05,58,1011.14
2006,11,16,05,59,1011.18
2006,11,16,06,00,1011.14
2006,11,16,06,01,1011.24
2006,11,16,06,02,1011.24
2006,11,16,06,03,1011.28
2006,11,16,06,04,1011.31
2006,11,16,06,05,1011.31
2006,11,16,06,06,1011.35
2006,11,16,06,07,1011.38
2006,11,16,06,08,1011.38
2006,11,16,06,09,1011.41
2006,11,16,06,10,1011.45
2006,11,16,06,11,1011.45
2006,11,16,06,12,1011.41
2006,11,16,06,13,1011.45
2006,11,16,06,14,1011.41
2006,11,16,06,15,1011.48
2006,11,16,06,16,1011.48
2006,11,16,06,17,1011.51
2006,11,16,06,18,1011.55
2006,11,16,06,19,1011.58
2006,11,16,06,20,1011.58
2006,11,16,06,21,1011.62
2006,11,16,06,22,1011.62
2006,11,16,06,23,1011.58
2006,11,16,06,24,1011.58
2006,11,16,06,25,1011.58
2006,11,16,06,26,1011.58
2006,11,16,06,27,1011.58
2006,11,16,06,28,1011.58
2006,11,16,06,29,1011.62
2006,11,16,06,30,1011.65
2006,11,16,06,31,1011.62
2006,11,16,06,32,1011.62
2006,11,16,06,33,1011.58
2006,11,16,06,34,1011.62
2006,11,16,06,35,1011.58
2006,11,16,06,36,1011.62
2006,11,16,06,37,1011.65
2006,11,16,06,38,1011.72
2006,11,16,06,39,1011.75
2006,11,16,06,40,1011.75
2006,11,16,06,41,1011.79
2006,11,16,06,42,1011.79
2006,11,16,06,43,1011.75
2006,11,16,06,44,1011.75
2006,11,16,06,45,1011.75
2006,11,16,06,46,1011.79
2006,11,16,06,47,1011.75
2006,11,16,06,48,1011.72
2006,11,16,06,49,1011.72
2006,11,16,06,50,1011.75
2006,11,16,06,51,1011.79
2006,11,16,06,52,1011.79
2006,11,16,06,53,1011.82
2006,11,16,06,54,1011.82
2006,11,16,06,55,1011.85
2006,11,16,06,56,1011.85
2006,11,16,06,57,1011.89
2006,11,16,06,58,1011.89
2006,11,16,06,59,1011.92
2006,11,16,07,00,1011.95
2006,11,16,07,01,1011.95
2006,11,16,07,02,1011.99
2006,11,16,07,03,1011.99
2006,11,16,07,04,1012.02
2006,11,16,07,05,1012.06
2006,11,16,07,06,1012.06
2006,11,16,07,07,1012.12
2006,11,16,07,08,1012.09
2006,11,16,07,09,1012.06
2006,11,16,07,10,1012.12
2006,11,16,07,11,1012.09
2006,11,16,07,12,1012.02
2006,11,16,07,13,1012.02
2006,11,16,07,14,1012.06
2006,11,16,07,15,1012.06
2006,11,16,07,16,1012.06
2006,11,16,07,17,1012.19
2006,11,16,07,18,1012.19
2006,11,16,07,19,1012.23
2006,11,16,07,20,1012.16
2006,11,16,07,21,1012.19
2006,11,16,07,22,1012.16
2006,11,16,07,23,1012.19
2006,11,16,07,24,1012.16
2006,11,16,07,25,1012.19
2006,11,16,07,26,1012.19
2006,11,16,07,27,1012.23
2006,11,16,07,28,1012.23
2006,11,16,07,29,1012.23
2006,11,16,07,30,1012.19
2006,11,16,07,31,1012.23
2006,11,16,07,32,1012.23
2006,11,16,07,33,1012.19
2006,11,16,07,34,1012.19
2006,11,16,07,35,1012.19
2006,11,16,07,36,1012.26
2006,11,16,07,37,1012.29
2006,11,16,07,38,1012.29
2006,11,16,07,39,1012.33
2006,11,16,07,40,1012.26
2006,11,16,07,41,1012.29
2006,11,16,07,42,1012.29
2006,11,16,07,43,1012.29
2006,11,16,07,44,1012.33
2006,11,16,07,45,1012.33
2006,11,16,07,46,1012.29
2006,11,16,07,47,1012.33
2006,11,16,07,48,1012.36
2006,11,16,07,49,1012.40
2006,11,16,07,50,1012.43
2006,11,16,07,51,1012.40
2006,11,16,07,52,1012.36
2006,11,16,07,53,1012.33
2006,11,16,07,54,1012.36
2006,11,16,07,55,1012.40
2006,11,16,07,56,1012.40
2006,11,16,07,57,1012.36
2006,11,16,07,58,1012.40
2006,11,16,07,59,1012.43
2006,11,16,08,00,1012.43
2006,11,16,08,01,1012.43
2006,11,16,08,02,1012.46
2006,11,16,08,03,1012.43
2006,11,16,08,04,1012.53
2006,11,16,08,05,1012.50
2006,11,16,08,06,1012.50
2006,11,16,08,07,1012.53
2006,11,16,08,08,1012.53
2006,11,16,08,09,1012.56
2006,11,16,08,10,1012.56
2006,11,16,08,11,1012.60
2006,11,16,08,12,1012.60
2006,11,16,08,13,1012.56
2006,11,16,08,14,1012.60
2006,11,16,08,15,1012.63
2006,11,16,08,16,1012.70
2006,11,16,08,17,1012.70
2006,11,16,08,18,1012.73
2006,11,16,08,19,1012.80
2006,11,16,08,20,1012.80
2006,11,16,08,21,1012.77
2006,11,16,08,22,1012.87
2006,11,16,08,23,1012.80
2006,11,16,08,24,1012.84
2006,11,16,08,25,1012.84
2006,11,16,08,26,1012.84
2006,11,16,08,27,1012.80
2006,11,16,08,28,1012.84
2006,11,16,08,29,1012.87
2006,11,16,08,30,1012.87
2006,11,16,08,31,1012.80
2006,11,16,08,32,1012.80
2006,11,16,08,33,1012.84
2006,11,16,08,34,1012.84
2006,11,16,08,35,1012.84
2006,11,16,08,36,1012.87
2006,11,16,08,37,1012.87
2006,11,16,08,38,1012.90
2006,11,16,08,39,1012.90
2006,11,16,08,40,1012.90
2006,11,16,08,41,1012.84
2006,11,16,08,42,1012.87
2006,11,16,08,43,1012.90
2006,11,16,08,44,1012.87
2006,11,16,08,45,1012.97
2006,11,16,08,46,1012.94
2006,11,16,08,47,1012.97
2006,11,16,08,48,1013.00
2006,11,16,08,49,1013.00
2006,11,16,08,50,1013.04
2006,11,16,08,51,1013.07
2006,11,16,08,52,1013.04
2006,11,16,08,53,1013.04
2006,11,16,08,54,1013.00
2006,11,16,08,55,1013.00
2006,11,16,08,56,1013.00
2006,11,16,08,57,1013.00
2006,11,16,08,58,1013.07
2006,11,16,08,59,1013.07
2006,11,16,09,00,1013.07
2006,11,16,09,01,1013.14
2006,11,16,09,02,1013.11
2006,11,16,09,03,1013.08
2006,11,16,09,04,1013.14
2006,11,16,09,05,1013.24
2006,11,16,09,06,1013.14
2006,11,16,09,07,1013.21
2006,11,16,09,08,1013.21
2006,11,16,09,09,1013.24
2006,11,16,09,10,1013.31
2006,11,16,09,11,1013.31
2006,11,16,09,12,1013.38
2006,11,16,09,13,1013.44
2006,11,16,09,14,1013.44
2006,11,16,09,15,1013.44
2006,11,16,09,16,1013.44
2006,11,16,09,17,1013.44
2006,11,16,09,18,1013.44
2006,11,16,09,19,1013.51
2006,11,16,09,20,1013.51
2006,11,16,09,21,1013.41
2006,11,16,09,22,1013.44
2006,11,16,09,23,1013.44
2006,11,16,09,24,1013.51
2006,11,16,09,25,1013.41
2006,11,16,09,26,1013.48
2006,11,16,09,27,1013.41
2006,11,16,09,28,1013.41
2006,11,16,09,29,1013.44
2006,11,16,09,30,1013.44
2006,11,16,09,31,1013.44
2006,11,16,09,32,1013.44
2006,11,16,09,33,1013.44
2006,11,16,09,34,1013.44
2006,11,16,09,35,1013.44
2006,11,16,09,36,1013.44
2006,11,16,09,37,1013.41
2006,11,16,09,38,1013.48
2006,11,16,09,39,1013.48
2006,11,16,09,40,1013.51
2006,11,16,09,41,1013.48
2006,11,16,09,42,1013.51
2006,11,16,09,43,1013.51
2006,11,16,09,44,1013.55
2006,11,16,09,45,1013.58
2006,11,16,09,46,1013.48
2006,11,16,09,47,1013.55
2006,11,16,09,48,1013.58
2006,11,16,09,49,1013.55
2006,11,16,09,50,1013.51
2006,11,16,09,51,1013.55
2006,11,16,09,52,1013.51
2006,11,16,09,53,1013.51
2006,11,16,09,54,1013.41
2006,11,16,09,55,1013.44
2006,11,16,09,56,1013.38
2006,11,16,09,57,1013.38
2006,11,16,09,58,1013.38
2006,11,16,09,59,1013.34
2006,11,16,10,00,1013.34
2006,11,16,10,01,1013.34
2006,11,16,10,02,1013.34
2006,11,16,10,03,1013.34
2006,11,16,10,04,1013.31
2006,11,16,10,05,1013.34
2006,11,16,10,06,1013.34
2006,11,16,10,07,1013.34
2006,11,16,10,08,1013.38
2006,11,16,10,09,1013.38
2006,11,16,10,10,1013.38
2006,11,16,10,11,1013.41
2006,11,16,10,12,1013.48
2006,11,16,10,13,1013.48
2006,11,16,10,14,1013.44
2006,11,16,10,15,1013.44
2006,11,16,10,16,1013.41
2006,11,16,10,17,1013.44
2006,11,16,10,18,1013.44
2006,11,16,10,19,1013.48
2006,11,16,10,20,1013.44
2006,11,16,10,21,1013.48
2006,11,16,10,22,1013.51
2006,11,16,10,23,1013.51
2006,11,16,10,24,1013.51
2006,11,16,10,25,1013.55
2006,11,16,10,26,1013.48
2006,11,16,10,27,1013.55
2006,11,16,10,28,1013.58
2006,11,16,10,29,1013.55
2006,11,16,10,30,1013.55
2006,11,16,10,31,1013.51
2006,11,16,10,32,1013.55
2006,11,16,10,33,1013.51
2006,11,16,10,34,1013.51
2006,11,16,10,35,1013.44
2006,11,16,10,36,1013.44
2006,11,16,10,37,1013.47
2006,11,16,10,38,1013.38
2006,11,16,10,39,1013.51
2006,11,16,10,40,1013.51
2006,11,16,10,41,1013.48
2006,11,16,10,42,1013.51
2006,11,16,10,43,1013.51
2006,11,16,10,44,1013.61
2006,11,16,10,45,1013.61
2006,11,16,10,46,1013.61
2006,11,16,10,47,1013.61
2006,11,16,10,48,1013.58
2006,11,16,10,49,1013.61
2006,11,16,10,50,1013.58
2006,11,16,10,51,1013.65
2006,11,16,10,52,1013.61
2006,11,16,10,53,1013.61
2006,11,16,10,54,1013.65
2006,11,16,10,55,1013.68
2006,11,16,10,56,1013.65
2006,11,16,10,57,1013.68
2006,11,16,10,58,1013.65
2006,11,16,10,59,1013.65
2006,11,16,11,00,1013.68
2006,11,16,11,01,1013.65
2006,11,16,11,02,1013.65
2006,11,16,11,03,1013.68
2006,11,16,11,04,1013.72
2006,11,16,11,05,1013.75
2006,11,16,11,06,1013.78
2006,11,16,11,07,1013.78
2006,11,16,11,08,1013.78
2006,11,16,11,09,1013.72
2006,11,16,11,10,1013.65
2006,11,16,11,11,1013.65
2006,11,16,11,12,1013.65
2006,11,16,11,13,1013.68
2006,11,16,11,14,1013.65
2006,11,16,11,15,1013.65
2006,11,16,11,16,1013.61
2006,11,16,11,17,1013.61
2006,11,16,11,18,1013.58
2006,11,16,11,19,1013.55
2006,11,16,11,20,1013.61
2006,11,16,11,21,1013.58
2006,11,16,11,22,1013.58
2006,11,16,11,23,1013.61
2006,11,16,11,24,1013.61
2006,11,16,11,25,1013.65
2006,11,16,11,26,1013.61
2006,11,16,11,27,1013.61
2006,11,16,11,28,1013.58
2006,11,16,11,29,1013.61
2006,11,16,11,30,1013.65
2006,11,16,11,31,1013.61
2006,11,16,11,32,1013.55
2006,11,16,11,33,1013.58
2006,11,16,11,34,1013.58
2006,11,16,11,35,1013.68
2006,11,16,11,36,1013.75
2006,11,16,11,37,1013.75
2006,11,16,11,38,1013.72
2006,11,16,11,39,1013.68
2006,11,16,11,40,1013.68
2006,11,16,11,41,1013.68
2006,11,16,11,42,1013.68
2006,11,16,11,43,1013.68
2006,11,16,11,44,1013.68
2006,11,16,11,45,1013.72
2006,11,16,11,46,1013.72
2006,11,16,11,47,1013.75
2006,11,16,11,48,1013.78
2006,11,16,11,49,1013.75
2006,11,16,11,50,1013.78
2006,11,16,11,51,1013.78
2006,11,16,11,52,1013.82
2006,11,16,11,53,1013.75
2006,11,16,11,54,1013.72
2006,11,16,11,55,1013.75
2006,11,16,11,56,1013.75
2006,11,16,11,57,1013.75
2006,11,16,11,58,1013.75
2006,11,16,11,59,1013.75
2006,11,16,12,00,1013.78
2006,11,16,12,01,1013.72
2006,11,16,12,02,1013.72
2006,11,16,12,03,1013.65
2006,11,16,12,04,1013.68
2006,11,16,12,05,1013.72
2006,11,16,12,06,1013.72
2006,11,16,12,07,1013.78
2006,11,16,12,08,1013.82
2006,11,16,12,09,1013.82
2006,11,16,12,10,1013.78
2006,11,16,12,11,1013.78
2006,11,16,12,12,1013.82
2006,11,16,12,13,1013.72
2006,11,16,12,14,1013.75
2006,11,16,12,15,1013.68
2006,11,16,12,16,1013.68
2006,11,16,12,17,1013.65
2006,11,16,12,18,1013.65
2006,11,16,12,19,1013.68
2006,11,16,12,20,1013.68
2006,11,16,12,21,1013.68
2006,11,16,12,22,1013.68
2006,11,16,12,23,1013.72
2006,11,16,12,24,1013.68
2006,11,16,12,25,1013.65
2006,11,16,12,26,1013.61
2006,11,16,12,27,1013.51
2006,11,16,12,28,1013.55
2006,11,16,12,29,1013.55
2006,11,16,12,30,1013.55
2006,11,16,12,31,1013.58
2006,11,16,12,32,1013.55
2006,11,16,12,33,1013.51
2006,11,16,12,34,1013.45
2006,11,16,12,35,1013.48
2006,11,16,12,36,1013.44
2006,11,16,12,37,1013.48
2006,11,16,12,38,1013.44
2006,11,16,12,39,1013.48
2006,11,16,12,40,1013.41
2006,11,16,12,41,1013.44
2006,11,16,12,42,1013.41
2006,11,16,12,43,1013.41
2006,11,16,12,44,1013.44
2006,11,16,12,45,1013.41
2006,11,16,12,46,1013.41
2006,11,16,12,47,1013.41
2006,11,16,12,48,1013.44
2006,11,16,12,49,1013.38
2006,11,16,12,50,1013.44
2006,11,16,12,51,1013.51
2006,11,16,12,52,1013.41
2006,11,16,12,53,1013.44
2006,11,16,12,54,1013.41
2006,11,16,12,55,1013.41
2006,11,16,12,56,1013.38
2006,11,16,12,57,1013.38
2006,11,16,12,58,1013.38
2006,11,16,12,59,1013.34
2006,11,16,13,00,1013.34
2006,11,16,13,01,1013.38
2006,11,16,13,02,1013.38
2006,11,16,13,03,1013.38
2006,11,16,13,04,1013.34
2006,11,16,13,05,1013.38
2006,11,16,13,06,1013.34
2006,11,16,13,07,1013.34
2006,11,16,13,08,1013.38
2006,11,16,13,09,1013.38
2006,11,16,13,10,1013.34
2006,11,16,13,11,1013.34
2006,11,16,13,12,1013.28
2006,11,16,13,13,1013.31
2006,11,16,13,14,1013.34
2006,11,16,13,15,1013.34
2006,11,16,13,16,1013.34
2006,11,16,13,17,1013.31
2006,11,16,13,18,1013.24
2006,11,16,13,19,1013.24
2006,11,16,13,20,1013.28
2006,11,16,13,21,1013.24
2006,11,16,13,22,1013.28
2006,11,16,13,23,1013.28
2006,11,16,13,24,1013.24
2006,11,16,13,25,1013.17
2006,11,16,13,26,1013.11
2006,11,16,13,27,1013.11
2006,11,16,13,28,1013.11
2006,11,16,13,29,1013.07
2006,11,16,13,30,1013.11
2006,11,16,13,31,1013.07
2006,11,16,13,32,1013.11
2006,11,16,13,33,1013.11
2006,11,16,13,34,1013.11
2006,11,16,13,35,1013.11
2006,11,16,13,36,1013.17
2006,11,16,13,37,1013.14
2006,11,16,13,38,1013.14
2006,11,16,13,39,1013.14
2006,11,16,13,40,1013.14
2006,11,16,13,41,1013.14
2006,11,16,13,42,1013.14
2006,11,16,13,43,1013.17
2006,11,16,13,44,1013.17
2006,11,16,13,45,1013.21
2006,11,16,13,46,1013.24
2006,11,16,13,47,1013.21
2006,11,16,13,48,1013.24
2006,11,16,13,49,1013.24
2006,11,16,13,50,1013.21
2006,11,16,13,51,1013.24
2006,11,16,13,52,1013.24
2006,11,16,13,53,1013.22
2006,11,16,13,54,1013.31
2006,11,16,13,55,1013.24
2006,11,16,13,56,1013.28
2006,11,16,13,57,1013.28
2006,11,16,13,58,1013.34
2006,11,16,13,59,1013.34
2006,11,16,14,00,1013.38
2006,11,16,14,01,1013.41
2006,11,16,14,02,1013.34
2006,11,16,14,03,1013.34
2006,11,16,14,04,1013.34
2006,11,16,14,05,1013.31
2006,11,16,14,06,1013.31
2006,11,16,14,07,1013.34
2006,11,16,14,08,1013.24
2006,11,16,14,09,1013.21
2006,11,16,14,10,1013.21
2006,11,16,14,11,1013.21
2006,11,16,14,12,1013.14
2006,11,16,14,13,1013.14
2006,11,16,14,14,1013.11
2006,11,16,14,15,1013.04
2006,11,16,14,16,1013.07
2006,11,16,14,17,1013.04
2006,11,16,14,18,1013.11
2006,11,16,14,19,1013.14
2006,11,16,14,20,1013.14
2006,11,16,14,21,1013.17
2006,11,16,14,22,1013.17
2006,11,16,14,23,1013.17
2006,11,16,14,24,1013.14
2006,11,16,14,25,1013.14
2006,11,16,14,26,1013.14
2006,11,16,14,27,1013.14
2006,11,16,14,28,1013.21
2006,11,16,14,29,1013.21
2006,11,16,14,30,1013.24
2006,11,16,14,31,1013.24
2006,11,16,14,32,1013.28
2006,11,16,14,33,1013.24
2006,11,16,14,34,1013.24
2006,11,16,14,35,1013.24
2006,11,16,14,36,1013.24
2006,11,16,14,37,1013.28
2006,11,16,14,38,1013.24
2006,11,16,14,39,1013.24
2006,11,16,14,40,1013.24
2006,11,16,14,41,1013.17
2006,11,16,14,42,1013.17
2006,11,16,14,43,1013.11
2006,11,16,14,44,1013.11
2006,11,16,14,45,1013.07
2006,11,16,14,46,1013.14
2006,11,16,14,47,1013.14
2006,11,16,14,48,1013.07
2006,11,16,14,49,1013.14
2006,11,16,14,50,1013.11
2006,11,16,14,51,1013.11
2006,11,16,14,52,1013.11
2006,11,16,14,53,1013.07
2006,11,16,14,54,1013.11
2006,11,16,14,55,1013.07
2006,11,16,14,56,1013.11
2006,11,16,14,57,1013.17
2006,11,16,14,58,1013.11
2006,11,16,14,59,1013.14
2006,11,16,15,00,1013.21
2006,11,16,15,01,1013.24
2006,11,16,15,02,1013.24
2006,11,16,15,03,1013.28
2006,11,16,15,04,1013.34
2006,11,16,15,05,1013.31
2006,11,16,15,06,1013.31
2006,11,16,15,07,1013.31
2006,11,16,15,08,1013.34
2006,11,16,15,09,1013.31
2006,11,16,15,10,1013.38
2006,11,16,15,11,1013.41
2006,11,16,15,12,1013.34
2006,11,16,15,13,1013.41
2006,11,16,15,14,1013.41
2006,11,16,15,15,1013.44
2006,11,16,15,16,1013.41
2006,11,16,15,17,1013.38
2006,11,16,15,18,1013.38
2006,11,16,15,19,1013.38
2006,11,16,15,20,1013.34
2006,11,16,15,21,1013.41
2006,11,16,15,22,1013.34
2006,11,16,15,23,1013.34
2006,11,16,15,24,1013.41
2006,11,16,15,25,1013.44
2006,11,16,15,26,1013.41
2006,11,16,15,27,1013.44
2006,11,16,15,28,1013.44
2006,11,16,15,29,1013.51
2006,11,16,15,30,1013.55
2006,11,16,15,31,1013.58
2006,11,16,15,32,1013.58
2006,11,16,15,33,1013.51
2006,11,16,15,34,1013.51
2006,11,16,15,35,1013.55
2006,11,16,15,36,1013.58
2006,11,16,15,37,1013.61
2006,11,16,15,38,1013.61
2006,11,16,15,39,1013.55
2006,11,16,15,40,1013.58
2006,11,16,15,41,1013.51
2006,11,16,15,42,1013.51
2006,11,16,15,43,1013.55
2006,11,16,15,44,1013.58
2006,11,16,15,45,1013.55
2006,11,16,15,46,1013.58
2006,11,16,15,47,1013.55
2006,11,16,15,48,1013.51
2006,11,16,15,49,1013.51
2006,11,16,15,50,1013.51
2006,11,16,15,51,1013.48
2006,11,16,15,52,1013.48
2006,11,16,15,53,1013.44
2006,11,16,15,54,1013.44
2006,11,16,15,55,1013.41
2006,11,16,15,56,1013.41